Weather in Ålbæk

Denmark     57°35′34″N   10°24′45″E
temp.,
°C
wind,
m/s
gust,
m/s
humid.,
%
clouds,
%
prec.,
mm/h
press.,
hPa
HPBL,
m
8 august, mon
mon823:00+13wsw4783100 0.0 1021318
02:00+14sw4790100 0.0 1021291
05:00+13wsw479417 0.0 1022227
08:00+15wsw47845 0.0 1022499
11:00+18w466429 0.0 1023791
14:00+19w565865 0.0 1024878
17:00+18wsw56590 0.0 1024849
20:00+16wsw45720 0.0 1025553
9 august, tue
tue923:00+12sw349158 0.0 1026118
02:00+12sw359417 0.0 1026140
05:00+12ssw3595100 0.0 1026153
08:00+14ssw4690100 0.0 1027248
11:00+18ssw457193 0.0 1027512
14:00+21wsw346143 0.0 1027573
17:00+20w4664100 0.0 1027509
20:00+17wsw5975100 0.0 1027419
10 august, wed
wed1023:00+15sw51187100 0.0 1026325
02:00+14sw61185100 0.0 1026291
05:00+15wsw61284100 0.0 1025334
08:00+17wsw6127866 0.0 1025388
11:00+21w710645 0.0 1025432
14:00+22w7105638 0.0 1024470
17:00+21w711625 0.0 1024454
20:00+18wsw613770 0.0 1023424
11 august, thu
thu1123:00+16wsw714885 0.0 1023369
02:00+16wsw613905 0.0 1023357
05:00+16wsw613881 0.0 1023361
08:00+18wsw612785 0.0 1023366
11:00+21w710583 0.0 1023432
14:00+23w69505 0.0 1023464
17:00+22w610525 0.0 1022409
20:00+18wsw510675 0.0 1022275
12 august, fri
fri1223:00+16wsw511800 0.0 1022208
02:00+15wsw410790 0.0 1022193
05:00+15sw510801 0.0 1021195
08:00+17wsw49690 0.0 1021227
11:00+22wsw46520 0.0 1021351
14:00+24wsw35460 0.0 1021527
17:00+23w23520 0.0 1020454
20:00+20w23612 0.0 102071